Regional Weather Roundup
Issued by NWS Northern Indiana

Home | Current Version | Previous Version | Text Only | Print | Product List | Glossary On
Versions: 1 2 3 4 5 6 7 8 9 10 11 12 13 14 15 16 17 18 19 20 21 22 23 24 25 26 27 28 29 30 31 32 33 34 35 36 37 38 39 40 41 42 43 44 45 46 47 48 49 50
000
ASUS43 KIWX 301910
RWRIWX

KIWX WEATHER ROUNDUP
NATIONAL WEATHER SERVICE NORTHERN INDIANA
300 PM EDT SAT MAY 30 2015

NOTE: "FAIR" INDICATES FEW OR NO CLOUDS BELOW 12,000 FEET WITH NO
SIGNIFICANT WEATHER AND/OR OBSTRUCTIONS TO VISIBILITY.

* THESE STATIONS ARE NOT UNDER NWS QUALITY CONTROL. THEY ALSO MAY NOT
  REPORT WEATHER SUCH AS PRECIPITATION OR FOG.

INZ001>027-302000-
NORTHERN INDIANA

CITY           SKY/WX    TMP DP  RH WIND       PRES   REMARKS
GARY*          LGT RAIN  52  52 100 N9G21     30.04R
VALPARAISO     CLOUDY    57  53  86 NW10      29.99R
MICHIGAN CITY* CLOUDY    52  52 100 N8        30.01R FOG
LAPORTE*       CLOUDY    71  67  88 N12       29.98F
KNOX*          CLOUDY    72  66  83 CALM      29.95F
SOUTH BEND     CLOUDY    75  66  73 NW9       29.97F
ELKHART*       PTSUNNY   75  66  73 CALM      29.97F
GOSHEN         PTSUNNY   79  68  69 W7        29.95F
MONTICELLO*    CLOUDY    78  71  79 NE3       29.94F
LOGANSPORT*    LGT RAIN  73  64  73 SE9       29.97R
ROCHESTER*     MOSUNNY   81  68  65 SW3       29.95F
WARSAW*        MOSUNNY   79  66  65 SE3       29.94F
ANGOLA*        PTSUNNY   81  75  83 W6        29.96F
FORT WAYNE     CLOUDY    77  68  73 W3        29.98F
HUNTINGTON*    RAIN      73  71  91 SW3       29.97F
PERU/GRISSOM   TSTM      70  68  93 S8        29.97R
MARION*          N/A    N/A N/A N/A CALM      30.00R

$$
INZ028>050-302000-
CENTRAL INDIANA

CITY           SKY/WX    TMP DP  RH WIND       PRES   REMARKS
LAFAYETTE      LGT RAIN  78  69  73 CALM      29.93S
KOKOMO*        PTSUNNY   70  64  83 SW8       29.99R THUNDER
MUNCIE*        PTSUNNY   73  66  78 NW15G25   29.97F
INDIANAPOLIS   CLOUDY    79  70  74 S9        29.93F

$$
MIZ043>046-050>051-056>058-064>065-071>073-077>080-302000-
SOUTHWEST LOWER MICHIGAN

CITY           SKY/WX    TMP DP  RH WIND       PRES   REMARKS
BATTLE CREEK   LGT RAIN  72  66  81 W5        30.00S
BENTON HARBOR  CLOUDY    59  58  96 VRB7      30.00S
COLDWATER*     CLOUDY    73  67  83 N6        29.97F
HILLSDALE*     MOSUNNY   80  67  64 SW5       29.97F
HOLLAND        LGT RAIN  62  60  93 NW7       30.01F
GRAND RAPIDS   LGT RAIN  67  66  97 NW10      30.00S FOG
KALAMAZOO      CLOUDY    73  65  75 NW6       29.99S
STURGIS*       PTSUNNY   73  68  83 NW7       29.97F
THREE RIVERS*  PTSUNNY   72  68  87 CALM      29.98F

$$
OHZ001>008-015>018-024>025-302000-
NORTHWEST OHIO

CITY           SKY/WX    TMP DP  RH WIND       PRES   REMARKS
WAUSEON*       PTSUNNY   75  70  83 SW16G25   29.99R
DEFIANCE       CLOUDY    75  68  78 CALM      29.97F
FINDLAY        MOSUNNY   80  67  64 SW8       29.97F
TOLEDO EXPRESS PTSUNNY   82  64  54 S10       29.95F
TOLEDO METCALF PTSUNNY   83  65  54 SW13      29.96F
LIMA           LGT RAIN  80  63  55 SW9       29.98F

$$
AND FOR LAKE MICHIGAN COASTAL AND OPEN LAKE BUOY OBSERVATIONS

STATION/POSITION TEMP    WIND        PRES    VSBY  WAVE
                 AIR SEA DIR/SP/G                  HT/PER
                 (F)     (DEG/KT/KT) (MB)    (MI)  (FT/S)
CALUMET HARBOR    50     340/ 15/ 26   N/A
MICHIGAN CITY     48     320/ 11/ 13   N/A
BURNS HARBOR      49     350/ 12/ 15 1017.3S
SAINT JOSEPH      54     330/ 10/ 12 1016.6R
SOUTH LAKE BUOY   41 38  350/ 21/ 25 1017.5F         3/ 4
4 MI NW BRIDGMAN  47 57  360/ 14/ 16   N/A           2/ 2
MICHIGAN CITY     47 56  360/ 14/ 19   N/A           3/ 3

$$
&&



USA.gov is the U.S. government's official web portal to all federal, state and local government web resources and services.